LAN3201 SBSP-SBRF

Flight info

Callsign LAN3201
Flight time 2h 49m
Altitude 35000
Route NUXEL UZ23 ANBEX
Aircraft A320/M-SDE3FGHIRWY/LB1

Departure

Time 2026-05-05 18:51
Airport Congonhas–Deputado Freitas Nobre Airport (SBSP)

Arrival

Time 2026-05-05 21:41
Airport Recife/Guararapes - Gilberto Freyre International Airport (SBRF)
Time Latitude Longitude Altitude Speed Heading
2026-05-05 18:26 -23.62509 -46.65964 2601 ft 0 kts 237°
2026-05-05 18:42 -23.62502 -46.65952 2600 ft 4 kts 228°
2026-05-05 18:43 -23.62482 -46.65937 2600 ft 4 kts 178°
2026-05-05 18:43 -23.62467 -46.65940 2600 ft 0 kts 147°
2026-05-05 18:46 -23.62484 -46.65929 2600 ft 8 kts 147°
2026-05-05 18:46 -23.62547 -46.65885 2601 ft 12 kts 147°
2026-05-05 18:46 -23.62618 -46.65834 2601 ft 12 kts 147°
2026-05-05 18:46 -23.62692 -46.65780 2601 ft 13 kts 146°
2026-05-05 18:47 -23.62769 -46.65723 2601 ft 14 kts 145°
2026-05-05 18:47 -23.62843 -46.65658 2602 ft 14 kts 128°
2026-05-05 18:47 -23.62903 -46.65582 2603 ft 13 kts 144°
2026-05-05 18:47 -23.62986 -46.65533 2603 ft 14 kts 157°
2026-05-05 18:48 -23.63083 -46.65499 2602 ft 15 kts 155°
2026-05-05 18:48 -23.63175 -46.65438 2602 ft 16 kts 147°
2026-05-05 18:48 -23.63269 -46.65372 2602 ft 16 kts 149°
2026-05-05 18:48 -23.63368 -46.65304 2602 ft 17 kts 147°
2026-05-05 18:49 -23.63465 -46.65238 2601 ft 10 kts 149°
2026-05-05 18:49 -23.63501 -46.65212 2600 ft 5 kts 138°
2026-05-05 18:49 -23.63510 -46.65181 2600 ft 4 kts 85°
2026-05-05 18:49 -23.63499 -46.65155 2599 ft 4 kts 57°
2026-05-05 18:50 -23.63481 -46.65136 2599 ft 3 kts 35°
2026-05-05 18:50 -23.63469 -46.65130 2599 ft 1 kts 25°
2026-05-05 18:50 -23.63445 -46.65120 2600 ft 4 kts 18°
2026-05-05 18:50 -23.63437 -46.65121 2600 ft 0 kts 355°
2026-05-05 18:51 -23.63394 -46.65147 2604 ft 33 kts 324°
2026-05-05 18:51 -23.62967 -46.65441 2610 ft 110 kts 327°
2026-05-05 18:51 -23.62132 -46.66025 2615 ft 171 kts 327°
2026-05-05 18:51 -23.61102 -46.66770 3260 ft 180 kts 327°
2026-05-05 18:52 -23.60059 -46.67527 3994 ft 177 kts 325°
2026-05-05 18:52 -23.59029 -46.68279 4410 ft 183 kts 326°
2026-05-05 18:52 -23.57951 -46.69065 4748 ft 192 kts 326°
2026-05-05 18:52 -23.56788 -46.69911 4938 ft 210 kts 326°
2026-05-05 18:53 -23.55525 -46.70828 5141 ft 225 kts 326°
2026-05-05 18:53 -23.54168 -46.71813 5337 ft 245 kts 326°
2026-05-05 18:53 -23.52703 -46.72881 5716 ft 262 kts 326°
2026-05-05 18:53 -23.51150 -46.73986 6334 ft 270 kts 332°
2026-05-05 18:54 -23.49344 -46.74531 7033 ft 273 kts
2026-05-05 18:54 -23.47493 -46.74115 7748 ft 275 kts 24°
2026-05-05 18:54 -23.45815 -46.73119 8482 ft 276 kts 36°
2026-05-05 18:54 -23.44245 -46.71894 9222 ft 279 kts 36°
2026-05-05 18:55 -23.42657 -46.70659 9966 ft 282 kts 36°
2026-05-05 18:55 -23.41053 -46.69408 10602 ft 288 kts 36°
2026-05-05 18:55 -23.39360 -46.68087 10774 ft 311 kts 36°
2026-05-05 18:55 -23.37535 -46.66665 10936 ft 334 kts 36°
2026-05-05 18:56 -23.35613 -46.65167 11353 ft 345 kts 36°
2026-05-05 18:56 -23.33649 -46.63635 11964 ft 349 kts 36°
2026-05-05 18:56 -23.31665 -46.62087 12629 ft 353 kts 36°
2026-05-05 18:56 -23.29657 -46.60521 13258 ft 357 kts 36°
2026-05-05 18:57 -23.27631 -46.58941 13882 ft 360 kts 36°
2026-05-05 18:57 -23.25581 -46.57343 14438 ft 364 kts 36°
2026-05-05 18:57 -23.23485 -46.55709 14971 ft 368 kts 36°
2026-05-05 18:57 -23.21394 -46.54078 15478 ft 372 kts 36°
2026-05-05 18:58 -23.19278 -46.52426 16002 ft 376 kts 36°
2026-05-05 18:58 -23.17147 -46.50764 16504 ft 379 kts 36°
2026-05-05 18:58 -23.14990 -46.49083 17002 ft 383 kts 36°
2026-05-05 18:58 -23.12821 -46.47394 17494 ft 386 kts 36°
2026-05-05 18:59 -23.10622 -46.45684 17992 ft 390 kts 36°
2026-05-05 18:59 -23.08409 -46.43964 18464 ft 393 kts 36°
2026-05-05 18:59 -23.06175 -46.42228 18890 ft 396 kts 36°
2026-05-05 18:59 -23.03922 -46.40481 19312 ft 399 kts 36°
2026-05-05 19:00 -23.01654 -46.38725 19740 ft 402 kts 36°
2026-05-05 19:00 -22.99371 -46.36956 20172 ft 405 kts 36°
2026-05-05 19:00 -22.97070 -46.35175 20594 ft 408 kts 36°
2026-05-05 19:00 -22.94753 -46.33379 21008 ft 410 kts 36°
2026-05-05 19:01 -22.92424 -46.31576 21409 ft 413 kts 36°
2026-05-05 19:01 -22.90070 -46.29756 21825 ft 416 kts 36°
2026-05-05 19:01 -22.87712 -46.27930 22241 ft 419 kts 36°
2026-05-05 19:01 -22.85330 -46.26086 22639 ft 421 kts 36°
2026-05-05 19:02 -22.82939 -46.24237 23049 ft 424 kts 36°
2026-05-05 19:02 -22.80529 -46.22374 23450 ft 427 kts 36°
2026-05-05 19:02 -22.78101 -46.20499 23818 ft 430 kts 36°
2026-05-05 19:02 -22.75662 -46.18615 24137 ft 432 kts 36°
2026-05-05 19:03 -22.73204 -46.16716 24463 ft 435 kts 36°
2026-05-05 19:03 -22.70733 -46.14809 24794 ft 438 kts 36°
2026-05-05 19:03 -22.69054 -46.13512 24994 ft 440 kts 36°
2026-05-05 19:03 -22.66560 -46.11585 25302 ft 442 kts 36°
2026-05-05 19:04 -22.64045 -46.09643 25609 ft 445 kts 36°
2026-05-05 19:04 -22.61516 -46.07694 25919 ft 447 kts 36°
2026-05-05 19:04 -22.58973 -46.05734 26217 ft 450 kts 36°
2026-05-05 19:04 -22.56417 -46.03763 26529 ft 453 kts 36°
2026-05-05 19:05 -22.53846 -46.01783 26828 ft 455 kts 36°
2026-05-05 19:05 -22.51257 -45.99794 27133 ft 458 kts 36°
2026-05-05 19:05 -22.48654 -45.97793 27422 ft 460 kts 36°
2026-05-05 19:05 -22.46044 -45.95787 27715 ft 462 kts 36°
2026-05-05 19:06 -22.43410 -45.93764 28010 ft 465 kts 36°
2026-05-05 19:06 -22.40773 -45.91740 28281 ft 467 kts 36°
2026-05-05 19:06 -22.38077 -45.89671 28560 ft 470 kts 36°
2026-05-05 19:06 -22.35437 -45.87648 28840 ft 472 kts 36°
2026-05-05 19:07 -22.32716 -45.85564 29114 ft 475 kts 36°
2026-05-05 19:07 -22.30015 -45.83494 29373 ft 477 kts 36°
2026-05-05 19:07 -22.27311 -45.81403 29646 ft 479 kts 37°
2026-05-05 19:07 -22.24656 -45.79225 29889 ft 481 kts 38°
2026-05-05 19:08 -22.22037 -45.76962 30134 ft 483 kts 39°
2026-05-05 19:08 -22.19431 -45.74646 30351 ft 486 kts 40°
2026-05-05 19:08 -22.16831 -45.72321 30557 ft 487 kts 40°
2026-05-05 19:08 -22.14203 -45.69985 30768 ft 489 kts 39°
2026-05-05 19:09 -22.11570 -45.67675 31059 ft 489 kts 39°
2026-05-05 19:09 -22.08917 -45.65379 31339 ft 489 kts 39°
2026-05-05 19:09 -22.06255 -45.63097 31604 ft 489 kts 38°
2026-05-05 19:09 -22.03592 -45.60824 31881 ft 489 kts 38°
2026-05-05 19:10 -22.00920 -45.58545 32160 ft 489 kts 38°
2026-05-05 19:10 -21.98254 -45.56262 32442 ft 489 kts 38°
2026-05-05 19:10 -21.95597 -45.53978 32712 ft 489 kts 38°
2026-05-05 19:10 -21.92937 -45.51690 32972 ft 490 kts 38°
2026-05-05 19:11 -21.90271 -45.49398 33237 ft 490 kts 38°
2026-05-05 19:11 -21.87608 -45.47108 33497 ft 490 kts 38°
2026-05-05 19:11 -21.84943 -45.44813 33760 ft 490 kts 38°
2026-05-05 19:11 -21.82285 -45.42524 34029 ft 490 kts 38°
2026-05-05 19:12 -21.79617 -45.40230 34279 ft 490 kts 38°
2026-05-05 19:12 -21.76949 -45.37941 34498 ft 491 kts 38°
2026-05-05 19:12 -21.74280 -45.35653 34730 ft 491 kts 38°
2026-05-05 19:12 -21.71574 -45.33333 34944 ft 491 kts 38°
2026-05-05 19:13 -21.68904 -45.31048 35120 ft 491 kts 38°
2026-05-05 19:13 -21.66229 -45.28766 35169 ft 489 kts 38°
2026-05-05 19:13 -21.60917 -45.24238 35177 ft 487 kts 38°
2026-05-05 19:14 -21.55614 -45.19717 35176 ft 486 kts 38°
2026-05-05 19:14 -21.50320 -45.15203 35177 ft 486 kts 38°
2026-05-05 19:15 -21.45027 -45.10677 35176 ft 486 kts 38°
2026-05-05 19:15 -21.39738 -45.06171 35175 ft 486 kts 38°
2026-05-05 19:16 -21.34440 -45.01668 35173 ft 486 kts 38°
2026-05-05 19:16 -21.29140 -44.97157 35176 ft 486 kts 38°
2026-05-05 19:17 -21.23846 -44.92645 35175 ft 486 kts 38°
2026-05-05 19:17 -21.18548 -44.88147 35174 ft 486 kts 38°
2026-05-05 19:18 -21.13246 -44.83655 35177 ft 486 kts 38°
2026-05-05 19:18 -21.07899 -44.79135 35179 ft 486 kts 37°
2026-05-05 19:19 -21.02559 -44.74690 35181 ft 486 kts 36°
2026-05-05 19:19 -20.97058 -44.70482 35185 ft 486 kts 34°
2026-05-05 19:20 -20.91509 -44.66360 35186 ft 486 kts 34°
2026-05-05 19:20 -20.85989 -44.62194 35185 ft 485 kts 34°
2026-05-05 19:21 -20.80499 -44.57983 35189 ft 485 kts 34°
2026-05-05 19:21 -20.75013 -44.53782 35184 ft 485 kts 34°
2026-05-05 19:22 -20.69516 -44.49595 35187 ft 485 kts 34°
2026-05-05 19:22 -20.64016 -44.45420 35187 ft 485 kts 34°
2026-05-05 19:23 -20.58518 -44.41240 35184 ft 485 kts 34°
2026-05-05 19:23 -20.53021 -44.37067 35183 ft 485 kts 34°
2026-05-05 19:24 -20.47527 -44.32896 35178 ft 485 kts 34°
2026-05-05 19:24 -20.42037 -44.28720 35178 ft 484 kts 35°
2026-05-05 19:25 -20.36586 -44.24409 35176 ft 485 kts 36°
2026-05-05 19:25 -20.31208 -44.20078 35177 ft 485 kts 36°
2026-05-05 19:26 -20.25803 -44.15771 35173 ft 485 kts 36°
2026-05-05 19:26 -20.20381 -44.11486 35177 ft 485 kts 35°
2026-05-05 19:27 -20.14961 -44.07216 35171 ft 485 kts 35°
2026-05-05 19:27 -20.09538 -44.02940 35158 ft 485 kts 35°
2026-05-05 19:28 -20.04113 -43.98663 35147 ft 485 kts 36°
2026-05-05 19:28 -19.98695 -43.94387 35134 ft 485 kts 36°
2026-05-05 19:29 -19.93278 -43.90118 35129 ft 485 kts 35°
2026-05-05 19:29 -19.87847 -43.85860 35130 ft 485 kts 35°
2026-05-05 19:30 -19.82386 -43.81654 35133 ft 485 kts 33°
2026-05-05 19:30 -19.76812 -43.77627 35221 ft 485 kts 32°
2026-05-05 19:31 -19.71164 -43.73628 35226 ft 485 kts 32°
2026-05-05 19:31 -19.65576 -43.69620 35216 ft 485 kts 33°
2026-05-05 19:32 -19.60007 -43.65585 35210 ft 485 kts 33°
2026-05-05 19:32 -19.54440 -43.61548 35192 ft 484 kts 33°
2026-05-05 19:33 -19.48873 -43.57525 35179 ft 484 kts 33°
2026-05-05 19:33 -19.43298 -43.53514 35173 ft 484 kts 33°
2026-05-05 19:34 -19.37730 -43.49506 35171 ft 484 kts 33°
2026-05-05 19:35 -19.30328 -43.44166 35169 ft 484 kts 33°
2026-05-05 19:35 -19.24857 -43.39934 35169 ft 484 kts 36°
2026-05-05 19:36 -19.19520 -43.35597 35162 ft 484 kts 36°
2026-05-05 19:36 -19.14168 -43.31276 35161 ft 484 kts 36°
2026-05-05 19:37 -19.08776 -43.26997 35168 ft 484 kts 35°
2026-05-05 19:37 -19.03376 -43.22738 35169 ft 484 kts 35°
2026-05-05 19:38 -18.97981 -43.18469 35167 ft 484 kts 35°
2026-05-05 19:38 -18.92594 -43.14204 35172 ft 484 kts 35°
2026-05-05 19:39 -18.87210 -43.09946 35165 ft 483 kts 35°
2026-05-05 19:39 -18.81823 -43.05694 35170 ft 483 kts 35°
2026-05-05 19:40 -18.76440 -43.01449 35166 ft 483 kts 35°
2026-05-05 19:40 -18.71061 -42.97203 35174 ft 483 kts 35°
2026-05-05 19:41 -18.65681 -42.92951 35182 ft 483 kts 35°
2026-05-05 19:41 -18.60268 -42.88679 35181 ft 483 kts 35°
2026-05-05 19:42 -18.54882 -42.84440 35183 ft 483 kts 35°
2026-05-05 19:42 -18.49494 -42.80203 35182 ft 483 kts 35°
2026-05-05 19:43 -18.44113 -42.75973 35186 ft 483 kts 35°
2026-05-05 19:43 -18.38730 -42.71742 35179 ft 482 kts 35°
2026-05-05 19:44 -18.33355 -42.67529 35175 ft 482 kts 35°
2026-05-05 19:44 -18.27978 -42.63316 35168 ft 482 kts 35°
2026-05-05 19:45 -18.22606 -42.59105 35164 ft 482 kts 34°
2026-05-05 19:45 -18.17226 -42.54908 35158 ft 481 kts 34°
2026-05-05 19:46 -18.11850 -42.50704 35158 ft 481 kts 34°
2026-05-05 19:46 -18.06476 -42.46501 35158 ft 481 kts 34°
2026-05-05 19:47 -18.01065 -42.42272 35159 ft 481 kts 34°
2026-05-05 19:47 -17.95689 -42.38082 35159 ft 481 kts 34°
2026-05-05 19:48 -17.90314 -42.33893 35158 ft 481 kts 34°
2026-05-05 19:48 -17.84941 -42.29704 35161 ft 481 kts 34°
2026-05-05 19:49 -17.79576 -42.25527 35166 ft 480 kts 34°
2026-05-05 19:49 -17.74210 -42.21349 35163 ft 480 kts 34°
2026-05-05 19:50 -17.68842 -42.17181 35164 ft 480 kts 34°
2026-05-05 19:50 -17.63471 -42.13014 35163 ft 480 kts 34°
2026-05-05 19:51 -17.58100 -42.08858 35168 ft 480 kts 34°
2026-05-05 19:51 -17.52731 -42.04701 35165 ft 480 kts 34°
2026-05-05 19:52 -17.47365 -42.00537 35167 ft 480 kts 34°
2026-05-05 19:52 -17.42004 -41.96372 35167 ft 479 kts 34°
2026-05-05 19:53 -17.36609 -41.92201 35170 ft 479 kts 34°
2026-05-05 19:53 -17.31251 -41.88052 35169 ft 479 kts 34°
2026-05-05 19:54 -17.25900 -41.83910 35169 ft 479 kts 34°
2026-05-05 19:54 -17.20540 -41.79771 35171 ft 479 kts 34°
2026-05-05 19:55 -17.15180 -41.75629 35171 ft 479 kts 34°
2026-05-05 19:55 -17.09828 -41.71495 35161 ft 478 kts 34°
2026-05-05 19:56 -17.04478 -41.67371 35168 ft 478 kts 34°
2026-05-05 19:56 -16.99124 -41.63242 35159 ft 478 kts 34°
2026-05-05 19:57 -16.93770 -41.59122 35160 ft 478 kts 34°
2026-05-05 19:57 -16.88416 -41.55001 35149 ft 478 kts 34°
2026-05-05 19:58 -16.83075 -41.50896 35153 ft 478 kts 34°
2026-05-05 19:58 -16.77675 -41.46750 35151 ft 478 kts 34°
2026-05-05 19:59 -16.72323 -41.42637 35143 ft 478 kts 34°
2026-05-05 19:59 -16.66969 -41.38515 35156 ft 478 kts 34°
2026-05-05 20:00 -16.61633 -41.34375 35153 ft 478 kts 34°
2026-05-05 20:00 -16.56304 -41.30226 35154 ft 478 kts 34°
2026-05-05 20:01 -16.50968 -41.26084 35155 ft 478 kts 34°
2026-05-05 20:01 -16.45632 -41.21949 35158 ft 478 kts 34°
2026-05-05 20:02 -16.40283 -41.17821 35163 ft 478 kts 34°
2026-05-05 20:02 -16.34939 -41.13694 35163 ft 479 kts 34°
2026-05-05 20:03 -16.29599 -41.09554 35164 ft 479 kts 34°
2026-05-05 20:03 -16.24248 -41.05423 35164 ft 478 kts 34°
2026-05-05 20:04 -16.18903 -41.01306 35162 ft 478 kts 34°
2026-05-05 20:04 -16.13560 -40.97187 35164 ft 478 kts 34°
2026-05-05 20:05 -16.08188 -40.93045 35163 ft 477 kts 34°
2026-05-05 20:05 -16.02856 -40.88934 35157 ft 477 kts 34°
2026-05-05 20:06 -15.98428 -40.85530 35154 ft 476 kts 34°
2026-05-05 20:06 -15.93106 -40.81434 35149 ft 476 kts 34°
2026-05-05 20:07 -15.87782 -40.77338 35149 ft 476 kts 34°
2026-05-05 20:07 -15.82455 -40.73255 35150 ft 476 kts 34°
2026-05-05 20:08 -15.77151 -40.69181 35150 ft 476 kts 34°
2026-05-05 20:08 -15.71811 -40.65087 35150 ft 475 kts 34°
2026-05-05 20:09 -15.66464 -40.60991 35145 ft 475 kts 34°
2026-05-05 20:09 -15.61147 -40.56919 35140 ft 475 kts 34°
2026-05-05 20:10 -15.55827 -40.52847 35140 ft 474 kts 34°
2026-05-05 20:10 -15.50520 -40.48785 35131 ft 474 kts 34°
2026-05-05 20:11 -15.45212 -40.44722 35128 ft 474 kts 34°
2026-05-05 20:11 -15.39907 -40.40664 35125 ft 474 kts 33°
2026-05-05 20:12 -15.34599 -40.36607 35120 ft 474 kts 33°
2026-05-05 20:12 -15.29284 -40.32559 35123 ft 474 kts 33°
2026-05-05 20:13 -15.23974 -40.28526 35123 ft 474 kts 33°
2026-05-05 20:13 -15.18666 -40.24482 35120 ft 473 kts 33°
2026-05-05 20:14 -15.13362 -40.20440 35118 ft 473 kts 33°
2026-05-05 20:14 -15.08068 -40.16403 35118 ft 473 kts 33°
2026-05-05 20:15 -15.02734 -40.12351 35116 ft 473 kts 33°
2026-05-05 20:15 -14.97429 -40.08327 35117 ft 472 kts 33°
2026-05-05 20:16 -14.92136 -40.04311 35117 ft 472 kts 33°
2026-05-05 20:16 -14.86841 -40.00287 35111 ft 472 kts 33°
2026-05-05 20:17 -14.81558 -39.96264 35115 ft 472 kts 33°
2026-05-05 20:17 -14.76269 -39.92251 35115 ft 471 kts 33°
2026-05-05 20:18 -14.70979 -39.88256 35114 ft 471 kts 33°
2026-05-05 20:18 -14.65688 -39.84257 35110 ft 471 kts 33°
2026-05-05 20:19 -14.60417 -39.80260 35108 ft 470 kts 33°
2026-05-05 20:19 -14.55110 -39.76234 35102 ft 470 kts 33°
2026-05-05 20:20 -14.49841 -39.72256 35100 ft 469 kts 33°
2026-05-05 20:20 -14.44568 -39.68291 35099 ft 468 kts 33°
2026-05-05 20:21 -14.39310 -39.64322 35099 ft 468 kts 33°
2026-05-05 20:21 -14.34055 -39.60352 35103 ft 468 kts 33°
2026-05-05 20:22 -14.28801 -39.56398 35101 ft 467 kts 33°
2026-05-05 20:22 -14.23553 -39.52463 35100 ft 467 kts 33°
2026-05-05 20:23 -14.18301 -39.48532 35097 ft 466 kts 33°
2026-05-05 20:23 -14.13054 -39.44606 35099 ft 466 kts 33°
2026-05-05 20:24 -14.07811 -39.40682 35093 ft 466 kts 33°
2026-05-05 20:24 -14.02575 -39.36766 35089 ft 466 kts 33°
2026-05-05 20:25 -13.97331 -39.32836 35088 ft 465 kts 33°
2026-05-05 20:25 -13.92093 -39.28918 35085 ft 465 kts 33°
2026-05-05 20:26 -13.86814 -39.24983 35085 ft 465 kts 33°
2026-05-05 20:26 -13.81583 -39.21078 35081 ft 465 kts 33°
2026-05-05 20:27 -13.76347 -39.17160 35079 ft 465 kts 33°
2026-05-05 20:27 -13.71115 -39.13258 35084 ft 465 kts 33°
2026-05-05 20:28 -13.65884 -39.09362 35079 ft 465 kts 33°
2026-05-05 20:28 -13.60643 -39.05462 35074 ft 464 kts 33°
2026-05-05 20:29 -13.55411 -39.01578 35086 ft 464 kts 32°
2026-05-05 20:29 -13.50171 -38.97696 35077 ft 464 kts 32°
2026-05-05 20:30 -13.44932 -38.93813 35080 ft 464 kts 32°
2026-05-05 20:30 -13.39694 -38.89943 35068 ft 464 kts 32°
2026-05-05 20:31 -13.34458 -38.86078 35077 ft 464 kts 32°
2026-05-05 20:31 -13.29182 -38.82180 35065 ft 464 kts 32°
2026-05-05 20:32 -13.23949 -38.78311 35074 ft 464 kts 32°
2026-05-05 20:32 -13.18713 -38.74449 35071 ft 464 kts 32°
2026-05-05 20:33 -13.13478 -38.70588 35064 ft 463 kts 32°
2026-05-05 20:33 -13.09079 -38.67345 35074 ft 463 kts 32°
2026-05-05 20:34 -13.04316 -38.63839 35059 ft 463 kts 32°
2026-05-05 20:34 -12.99076 -38.59982 35060 ft 463 kts 32°
2026-05-05 20:35 -12.93842 -38.56130 35056 ft 463 kts 32°
2026-05-05 20:35 -12.88602 -38.52271 35057 ft 463 kts 32°
2026-05-05 20:36 -12.83369 -38.48416 35048 ft 463 kts 32°
2026-05-05 20:36 -12.78126 -38.44563 35056 ft 463 kts 32°
2026-05-05 20:37 -12.72889 -38.40722 35050 ft 463 kts 32°
2026-05-05 20:37 -12.67646 -38.36879 35056 ft 463 kts 32°
2026-05-05 20:38 -12.62407 -38.33035 35056 ft 463 kts 32°
2026-05-05 20:38 -12.58020 -38.29818 35062 ft 463 kts 32°
2026-05-05 20:39 -12.52780 -38.25971 35064 ft 463 kts 32°
2026-05-05 20:39 -12.47543 -38.22135 35065 ft 463 kts 32°
2026-05-05 20:40 -12.42303 -38.18299 35065 ft 463 kts 32°
2026-05-05 20:40 -12.37060 -38.14463 35070 ft 463 kts 32°
2026-05-05 20:41 -12.31819 -38.10629 35067 ft 463 kts 32°
2026-05-05 20:41 -12.26578 -38.06802 35070 ft 463 kts 32°
2026-05-05 20:42 -12.21341 -38.02976 35071 ft 463 kts 32°
2026-05-05 20:42 -12.16062 -37.99124 35070 ft 463 kts 32°
2026-05-05 20:43 -12.10823 -37.95296 35069 ft 463 kts 32°
2026-05-05 20:43 -12.05586 -37.91481 35070 ft 463 kts 32°
2026-05-05 20:44 -12.00349 -37.87662 35072 ft 462 kts 32°
2026-05-05 20:44 -11.95115 -37.83846 35069 ft 462 kts 32°
2026-05-05 20:45 -11.87258 -37.78134 35066 ft 462 kts 32°
2026-05-05 20:45 -11.82028 -37.74336 35066 ft 462 kts 32°
2026-05-05 20:46 -11.76793 -37.70544 35066 ft 461 kts 32°
2026-05-05 20:46 -11.71563 -37.66751 35064 ft 461 kts 32°
2026-05-05 20:47 -11.66331 -37.62966 35058 ft 461 kts 32°
2026-05-05 20:47 -11.61103 -37.59187 35059 ft 460 kts 32°
2026-05-05 20:48 -11.55880 -37.55411 35058 ft 460 kts 32°
2026-05-05 20:48 -11.50618 -37.51608 35059 ft 460 kts 32°
2026-05-05 20:49 -11.45391 -37.47834 35054 ft 460 kts 32°
2026-05-05 20:49 -11.40163 -37.44054 35057 ft 461 kts 32°
2026-05-05 20:50 -11.34937 -37.40274 35054 ft 460 kts 32°
2026-05-05 20:50 -11.29714 -37.36501 35056 ft 460 kts 32°
2026-05-05 20:51 -11.24488 -37.32735 35057 ft 460 kts 32°
2026-05-05 20:51 -11.19260 -37.28971 35047 ft 460 kts 32°
2026-05-05 20:52 -11.14034 -37.25208 35040 ft 460 kts 32°
2026-05-05 20:52 -11.08820 -37.21448 35037 ft 459 kts 32°
2026-05-05 20:53 -11.03601 -37.17696 35027 ft 459 kts 32°
2026-05-05 20:53 -10.98384 -37.13947 35027 ft 459 kts 32°
2026-05-05 20:54 -10.93167 -37.10207 35028 ft 459 kts 32°
2026-05-05 20:54 -10.87911 -37.06444 35027 ft 459 kts 32°
2026-05-05 20:55 -10.82693 -37.02711 35030 ft 459 kts 32°
2026-05-05 20:55 -10.77473 -36.98971 35035 ft 459 kts 32°
2026-05-05 20:56 -10.72251 -36.95229 35039 ft 459 kts 32°
2026-05-05 20:56 -10.67034 -36.91489 35045 ft 459 kts 32°
2026-05-05 20:57 -10.61811 -36.87765 35044 ft 459 kts 32°
2026-05-05 20:57 -10.56588 -36.84033 35055 ft 459 kts 32°
2026-05-05 20:58 -10.51370 -36.80306 35038 ft 459 kts 32°
2026-05-05 20:58 -10.46148 -36.76573 35051 ft 459 kts 32°
2026-05-05 20:59 -10.40932 -36.72852 35041 ft 458 kts 32°
2026-05-05 20:59 -10.35707 -36.69124 35031 ft 458 kts 32°
2026-05-05 21:00 -10.30453 -36.65374 35042 ft 458 kts 32°
2026-05-05 21:00 -10.25277 -36.61677 35028 ft 458 kts 32°
2026-05-05 21:01 -10.20021 -36.57932 35027 ft 458 kts 32°
2026-05-05 21:01 -10.14800 -36.54220 35034 ft 458 kts 32°
2026-05-05 21:02 -10.09576 -36.50516 35036 ft 458 kts 32°
2026-05-05 21:02 -10.04340 -36.46813 35033 ft 458 kts 32°
2026-05-05 21:03 -9.99116 -36.43109 35037 ft 458 kts 32°
2026-05-05 21:03 -9.93891 -36.39396 35029 ft 459 kts 32°
2026-05-05 21:04 -9.88658 -36.35689 35034 ft 459 kts 32°
2026-05-05 21:04 -9.83420 -36.31989 35039 ft 459 kts 32°
2026-05-05 21:05 -9.78180 -36.28286 35036 ft 459 kts 32°
2026-05-05 21:05 -9.72940 -36.24587 35034 ft 459 kts 32°
2026-05-05 21:06 -9.67700 -36.20890 35032 ft 459 kts 32°
2026-05-05 21:06 -9.63313 -36.17785 35040 ft 459 kts 32°
2026-05-05 21:07 -9.57229 -36.13481 35040 ft 459 kts 32°
2026-05-05 21:07 -9.51991 -36.09779 35036 ft 459 kts 32°
2026-05-05 21:08 -9.46726 -36.06062 35040 ft 459 kts 32°
2026-05-05 21:08 -9.41483 -36.02372 35026 ft 460 kts 32°
2026-05-05 21:09 -9.36217 -35.98665 35022 ft 462 kts 32°
2026-05-05 21:09 -9.30924 -35.94937 35016 ft 464 kts 32°
2026-05-05 21:10 -9.26518 -35.91828 35022 ft 465 kts 32°
2026-05-05 21:10 -9.21200 -35.88076 35025 ft 466 kts 32°
2026-05-05 21:11 -9.15868 -35.84334 35034 ft 467 kts 32°
2026-05-05 21:11 -9.10538 -35.80578 35040 ft 467 kts 32°
2026-05-05 21:12 -9.05199 -35.76819 35047 ft 467 kts 32°
2026-05-05 21:12 -9.00096 -35.72803 34714 ft 456 kts 41°
2026-05-05 21:13 -8.97803 -35.70616 34325 ft 451 kts 41°
2026-05-05 21:13 -8.95536 -35.68445 33881 ft 447 kts 41°
2026-05-05 21:13 -8.93288 -35.66293 33399 ft 443 kts 41°
2026-05-05 21:13 -8.91054 -35.64159 32946 ft 439 kts 41°
2026-05-05 21:14 -8.88841 -35.62048 32500 ft 435 kts 41°
2026-05-05 21:14 -8.86646 -35.59954 32064 ft 432 kts 41°
2026-05-05 21:14 -8.84472 -35.57882 31637 ft 428 kts 41°
2026-05-05 21:14 -8.82313 -35.55824 31204 ft 424 kts 42°
2026-05-05 21:15 -8.80179 -35.53788 30783 ft 421 kts 42°
2026-05-05 21:15 -8.78067 -35.51774 30363 ft 417 kts 42°
2026-05-05 21:15 -8.75951 -35.49759 29929 ft 414 kts 42°
2026-05-05 21:15 -8.73865 -35.47773 29448 ft 411 kts 42°
2026-05-05 21:16 -8.71775 -35.45789 28568 ft 416 kts 42°
2026-05-05 21:16 -8.69636 -35.43759 27530 ft 428 kts 42°
2026-05-05 21:16 -8.67459 -35.41690 26846 ft 429 kts 42°
2026-05-05 21:16 -8.65295 -35.39631 26293 ft 426 kts 42°
2026-05-05 21:17 -8.63145 -35.37587 25777 ft 423 kts 42°
2026-05-05 21:17 -8.61012 -35.35563 25281 ft 419 kts 42°
2026-05-05 21:17 -8.58895 -35.33555 24807 ft 415 kts 43°
2026-05-05 21:17 -8.56801 -35.31570 24333 ft 411 kts 43°
2026-05-05 21:18 -8.54727 -35.29601 23871 ft 407 kts 43°
2026-05-05 21:18 -8.52670 -35.27648 23375 ft 404 kts 43°
2026-05-05 21:18 -8.50630 -35.25713 22854 ft 400 kts 43°
2026-05-05 21:18 -8.48765 -35.23945 22387 ft 397 kts 43°
2026-05-05 21:19 -8.46757 -35.22043 21896 ft 394 kts 43°
2026-05-05 21:19 -8.44768 -35.20159 21429 ft 390 kts 43°
2026-05-05 21:19 -8.42769 -35.18264 20954 ft 387 kts 44°
2026-05-05 21:19 -8.40815 -35.16413 20509 ft 384 kts 44°
2026-05-05 21:20 -8.38873 -35.14577 20062 ft 381 kts 44°
2026-05-05 21:20 -8.36944 -35.12758 19624 ft 377 kts 44°
2026-05-05 21:20 -8.35042 -35.10966 18924 ft 372 kts 44°
2026-05-05 21:20 -8.33157 -35.09191 18161 ft 368 kts 44°
2026-05-05 21:21 -8.31302 -35.07441 17331 ft 363 kts 44°
2026-05-05 21:21 -8.29469 -35.05713 16588 ft 357 kts 43°
2026-05-05 21:21 -8.27425 -35.04321 15868 ft 354 kts 26°
2026-05-05 21:21 -8.25094 -35.03585 15132 ft 351 kts 15°
2026-05-05 21:22 -8.22730 -35.03024 14409 ft 347 kts 15°
2026-05-05 21:22 -8.20391 -35.02477 13707 ft 343 kts 15°
2026-05-05 21:22 -8.18074 -35.01986 12916 ft 340 kts
2026-05-05 21:22 -8.15723 -35.02180 12164 ft 342 kts 347°
2026-05-05 21:23 -8.13447 -35.02875 11353 ft 342 kts 346°
2026-05-05 21:23 -8.11181 -35.03588 10580 ft 340 kts 346°
2026-05-05 21:23 -8.08925 -35.04300 10171 ft 340 kts 346°
2026-05-05 21:23 -8.06672 -35.05009 10019 ft 332 kts 346°
2026-05-05 21:24 -8.04556 -35.05681 10002 ft 305 kts 346°
2026-05-05 21:24 -8.02615 -35.06297 10008 ft 281 kts 346°
2026-05-05 21:24 -8.00781 -35.06873 10009 ft 274 kts 346°
2026-05-05 21:24 -7.98966 -35.07438 10014 ft 272 kts 346°
2026-05-05 21:25 -7.97250 -35.08250 10023 ft 278 kts 325°
2026-05-05 21:25 -7.96002 -35.09732 10021 ft 281 kts 296°
2026-05-05 21:25 -7.95544 -35.11628 10018 ft 281 kts 268°
2026-05-05 21:25 -7.95969 -35.13526 10019 ft 277 kts 240°
2026-05-05 21:26 -7.97149 -35.15015 10021 ft 271 kts 213°
2026-05-05 21:26 -7.98800 -35.15834 10023 ft 262 kts 188°
2026-05-05 21:26 -8.00581 -35.15886 10022 ft 254 kts 164°
2026-05-05 21:26 -8.02294 -35.15469 10018 ft 253 kts 160°
2026-05-05 21:27 -8.04007 -35.14975 10017 ft 253 kts 159°
2026-05-05 21:27 -8.05686 -35.14466 10018 ft 252 kts 159°
2026-05-05 21:27 -8.07353 -35.13959 9789 ft 249 kts 159°
2026-05-05 21:27 -8.08983 -35.13382 9467 ft 245 kts 148°
2026-05-05 21:28 -8.10289 -35.12335 9167 ft 239 kts 128°
2026-05-05 21:28 -8.11097 -35.10884 8844 ft 238 kts 107°
2026-05-05 21:28 -8.11294 -35.09237 8523 ft 240 kts 87°
2026-05-05 21:28 -8.10849 -35.07609 8201 ft 245 kts 66°
2026-05-05 21:29 -8.09794 -35.06247 7886 ft 251 kts 43°
2026-05-05 21:29 -8.08248 -35.05402 7553 ft 258 kts 18°
2026-05-05 21:29 -8.06452 -35.05272 7224 ft 263 kts 352°
2026-05-05 21:29 -8.04666 -35.05696 6908 ft 264 kts 345°
2026-05-05 21:30 -8.02896 -35.06205 6615 ft 265 kts 344°
2026-05-05 21:30 -8.01137 -35.06736 6336 ft 264 kts 343°
2026-05-05 21:30 -7.99381 -35.07271 6030 ft 263 kts 343°
2026-05-05 21:30 -7.97680 -35.07925 5732 ft 262 kts 326°
2026-05-05 21:31 -7.96398 -35.09177 5419 ft 256 kts 298°
2026-05-05 21:31 -7.95795 -35.10822 5115 ft 247 kts 271°
2026-05-05 21:31 -7.95921 -35.12501 4811 ft 237 kts 247°
2026-05-05 21:31 -7.96678 -35.13936 4497 ft 228 kts 224°
2026-05-05 21:32 -7.97874 -35.14920 4199 ft 219 kts 203°
2026-05-05 21:32 -7.99295 -35.15368 3877 ft 213 kts 183°
2026-05-05 21:32 -8.00755 -35.15268 3569 ft 210 kts 167°
2026-05-05 21:32 -8.02176 -35.14908 3258 ft 210 kts 162°
2026-05-05 21:33 -8.03511 -35.14343 3041 ft 207 kts 144°
2026-05-05 21:33 -8.04464 -35.13311 3018 ft 198 kts 125°
2026-05-05 21:33 -8.05010 -35.12043 3011 ft 198 kts 108°
2026-05-05 21:33 -8.05124 -35.10639 3018 ft 205 kts 90°
2026-05-05 21:34 -8.04743 -35.09228 3021 ft 214 kts 70°
2026-05-05 21:34 -8.03855 -35.08012 3019 ft 220 kts 47°
2026-05-05 21:34 -8.02537 -35.07192 3014 ft 227 kts 23°
2026-05-05 21:34 -8.00961 -35.06945 3014 ft 233 kts 358°
2026-05-05 21:35 -7.99346 -35.07229 2876 ft 232 kts 354°
2026-05-05 21:35 -7.97817 -35.06967 2597 ft 221 kts 38°
2026-05-05 21:35 -7.96911 -35.05825 2317 ft 206 kts 76°
2026-05-05 21:35 -7.96597 -35.04426 2018 ft 205 kts 86°
2026-05-05 21:36 -7.96392 -35.03009 1828 ft 203 kts 86°
2026-05-05 21:36 -7.96189 -35.01593 1818 ft 205 kts 86°
2026-05-05 21:36 -7.96126 -35.00174 1815 ft 201 kts 102°
2026-05-05 21:36 -7.96519 -34.98856 1814 ft 190 kts 121°
2026-05-05 21:37 -7.97264 -34.97825 1811 ft 177 kts 138°
2026-05-05 21:37 -7.98244 -34.97112 1809 ft 172 kts 154°
2026-05-05 21:37 -7.99364 -34.96696 1815 ft 171 kts 161°
2026-05-05 21:37 -8.00493 -34.96324 1815 ft 171 kts 162°
2026-05-05 21:38 -8.01619 -34.95952 1808 ft 170 kts 162°
2026-05-05 21:38 -8.02722 -34.95589 1740 ft 163 kts 162°
2026-05-05 21:38 -8.03768 -34.95244 1571 ft 152 kts 161°
2026-05-05 21:38 -8.04735 -34.94925 1395 ft 141 kts 161°
2026-05-05 21:39 -8.05649 -34.94623 1184 ft 136 kts 161°
2026-05-05 21:39 -8.06529 -34.94328 1137 ft 134 kts 161°
2026-05-05 21:39 -8.07414 -34.94030 953 ft 134 kts 162°
2026-05-05 21:39 -8.08270 -34.93752 733 ft 134 kts 163°
2026-05-05 21:40 -8.09166 -34.93461 574 ft 136 kts 163°
2026-05-05 21:40 -8.10055 -34.93163 397 ft 135 kts 161°
2026-05-05 21:40 -8.10935 -34.92868 217 ft 132 kts 162°
2026-05-05 21:40 -8.11804 -34.92589 52 ft 126 kts 161°
2026-05-05 21:41 -8.12478 -34.92366 46 ft 64 kts 162°
2026-05-05 21:41 -8.12680 -34.92300 52 ft 19 kts 161°
2026-05-05 21:41 -8.12802 -34.92260 52 ft 19 kts 162°
2026-05-05 21:41 -8.12933 -34.92217 45 ft 20 kts 161°
2026-05-05 21:42 -8.13065 -34.92168 45 ft 20 kts 163°
2026-05-05 21:42 -8.13195 -34.92129 45 ft 16 kts 155°
2026-05-05 21:42 -8.13265 -34.92048 43 ft 10 kts 129°
2026-05-05 21:42 -8.13311 -34.91991 44 ft 11 kts 129°
2026-05-05 21:43 -8.13361 -34.91933 45 ft 11 kts 139°
2026-05-05 21:43 -8.13432 -34.91902 45 ft 12 kts 162°
2026-05-05 21:43 -8.13487 -34.91884 44 ft 13 kts 162°
2026-05-05 21:43 -8.13547 -34.91862 43 ft 5 kts 136°
2026-05-05 21:44 -8.13547 -34.91830 45 ft 3 kts 70°
2026-05-05 21:44 -8.13546 -34.91828 45 ft 0 kts 69°
2026-05-05 21:44 -8.13538 -34.91806 46 ft 4 kts 69°
2026-05-05 21:44 -8.13537 -34.91804 46 ft 0 kts 69°